| time (UTC) | temp F | wind direction | speed MPH | gust MPH | rain 1hr in | rain 24hr in | rain mn in | humidity % | barometer mb |
| 20260505074517 | 53 | 75 | 0.0 | 2.0 | 0.00 | 0.00 | 0.00 | 62 | 919.5 |
| 20260505073013 | 52 | 75 | 0.0 | 1.0 | 0.00 | 0.00 | 0.00 | 64 | 919.4 |
| 20260505071526 | 55 | 75 | 0.0 | 2.0 | 0.00 | 0.00 | 0.00 | 59 | 919.3 |
| 20260505070008 | 55 | 71 | 2.0 | 3.0 | 0.00 | 0.00 | 0.00 | 59 | 919.3 |
| 20260505064508 | 57 | 68 | 0.0 | 3.0 | 0.00 | 0.00 | 0.00 | 56 | 919.2 |
| 20260505063007 | 55 | 60 | 0.0 | 2.0 | 0.00 | 0.00 | 0.00 | 59 | 919.1 |
| 20260505061505 | 56 | 59 | 0.0 | 1.0 | 0.00 | 0.00 | 0.00 | 57 | 919.0 |
| 20260505060016 | 60 | 61 | 3.0 | 6.0 | 0.00 | 0.00 | 0.00 | 51 | 918.9 |
| 20260505054506 | 56 | 42 | 3.0 | 6.0 | 0.00 | 0.00 | 0.00 | 58 | 918.9 |
| 20260505053004 | 58 | 32 | 0.0 | 5.0 | 0.00 | 0.00 | 0.00 | 55 | 918.8 |
| 20260505051608 | 56 | 9 | 5.0 | 7.0 | 0.00 | 0.00 | 0.00 | 59 | 918.7 |
| 20260505041501 | 59 | 4 | 0.0 | 0.0 | 0.00 | 0.00 | 0.00 | 51 | 918.4 |
| 20260505040001 | 61 | 4 | 0.0 | 0.0 | 0.00 | 0.00 | 0.00 | 48 | 918.2 |
| 20260505034501 | 62 | 4 | 0.0 | 1.0 | 0.00 | 0.00 | 0.00 | 48 | 918.1 |
| 20260505033059 | 61 | 358 | 0.0 | 0.0 | 0.00 | 0.00 | 0.00 | 50 | 917.9 |
| 20260505031601 | 63 | 358 | 0.0 | 1.0 | 0.00 | 0.00 | 0.00 | 49 | 917.8 |
| 20260505030056 | 65 | 358 | 0.0 | 0.0 | 0.00 | 0.00 | 0.00 | 45 | 917.7 |
| 20260505024604 | 69 | 358 | 0.0 | 1.0 | 0.00 | 0.00 | 0.00 | 42 | 917.6 |
| 20260505023055 | 71 | 358 | 0.0 | 1.0 | 0.00 | 0.00 | 0.00 | 41 | 917.5 |
| 20260505021552 | 71 | 33 | 0.0 | 1.0 | 0.00 | 0.00 | 0.00 | 41 | 917.5 |
| 20260505020050 | 72 | 33 | 0.0 | 2.0 | 0.00 | 0.00 | 0.00 | 37 | 917.5 |
| 20260505014549 | 73 | 33 | 1.0 | 2.0 | 0.00 | 0.00 | 0.00 | 36 | 917.4 |
| 20260505013100 | 73 | 325 | 1.0 | 6.0 | 0.00 | 0.00 | 0.00 | 36 | 917.4 |
| 20260505011547 | 73 | 340 | 3.0 | 7.0 | 0.00 | 0.00 | 0.00 | 35 | 917.5 |
| 20260505010051 | 74 | 326 | 4.0 | 8.0 | 0.00 | 0.00 | 0.00 | 34 | 917.6 |
| 20260505004543 | 75 | 325 | 4.0 | 6.0 | 0.00 | 0.00 | 0.00 | 34 | 917.6 |
| 20260505003041 | 75 | 328 | 4.0 | 7.0 | 0.00 | 0.00 | 0.00 | 33 | 917.6 |
| 20260505001540 | 75 | 323 | 2.0 | 8.0 | 0.00 | 0.00 | 0.00 | 34 | 917.7 |
| 20260505000052 | 75 | 311 | 4.0 | 9.0 | 0.00 | 0.00 | 0.00 | 34 | 917.6 |
| 20260504234538 | 76 | 271 | 5.0 | 14.0 | 0.00 | 0.00 | 0.00 | 35 | 917.6 |
| 20260504233038 | 76 | 300 | 5.0 | 10.0 | 0.00 | 0.00 | 0.00 | 34 | 917.7 |
| 20260504231533 | 76 | 315 | 3.0 | 9.0 | 0.00 | 0.00 | 0.00 | 36 | 917.7 |
| 20260504230032 | 76 | 302 | 3.0 | 13.0 | 0.00 | 0.00 | 0.00 | 38 | 917.7 |
| 20260504224531 | 76 | 304 | 4.0 | 9.0 | 0.00 | 0.00 | 0.00 | 36 | 917.7 |
| 20260504223029 | 76 | 276 | 3.0 | 10.0 | 0.00 | 0.00 | 0.00 | 35 | 917.9 |
| 20260504221529 | 75 | 321 | 4.0 | 10.0 | 0.00 | 0.00 | 0.00 | 37 | 917.9 |
| 20260504220039 | 77 | 287 | 7.0 | 13.0 | 0.00 | 0.00 | 0.00 | 32 | 917.9 |
| 20260504214527 | 76 | 233 | 4.0 | 9.0 | 0.00 | 0.00 | 0.00 | 34 | 918.0 |
| 20260504213022 | 75 | 281 | 7.0 | 13.0 | 0.00 | 0.00 | 0.00 | 32 | 918.0 |
| 20260504211527 | 75 | 284 | 6.0 | 12.0 | 0.00 | 0.00 | 0.00 | 38 | 918.1 |
| 20260504210017 | 75 | 264 | 4.0 | 8.0 | 0.00 | 0.00 | 0.00 | 35 | 918.2 |
| 20260504204518 | 75 | 305 | 8.0 | 19.0 | 0.00 | 0.00 | 0.00 | 35 | 918.4 |
| 20260504203014 | 75 | 316 | 3.0 | 8.0 | 0.00 | 0.00 | 0.00 | 35 | 918.5 |
| 20260504201512 | 75 | 328 | 4.0 | 10.0 | 0.00 | 0.00 | 0.00 | 31 | 918.5 |
| 20260504200012 | 75 | 288 | 2.0 | 7.0 | 0.00 | 0.00 | 0.00 | 35 | 918.5 |
| 20260504194510 | 74 | 299 | 0.0 | 5.0 | 0.00 | 0.00 | 0.00 | 39 | 918.6 |
| 20260504193016 | 74 | 284 | 2.0 | 7.0 | 0.00 | 0.00 | 0.00 | 36 | 918.6 |
| 20260504191508 | 72 | 277 | 0.0 | 5.0 | 0.00 | 0.00 | 0.00 | 38 | 918.7 |
| 20260504190009 | 72 | 281 | 1.0 | 4.0 | 0.00 | 0.00 | 0.00 | 40 | 918.8 |
| 20260504184506 | 72 | 253 | 0.0 | 7.0 | 0.00 | 0.00 | 0.00 | 40 | 918.9 |
| 20260504183004 | 74 | 120 | 0.0 | 2.0 | 0.00 | 0.00 | 0.00 | 38 | 918.8 |
| 20260504181502 | 70 | 285 | 0.0 | 3.0 | 0.00 | 0.00 | 0.00 | 43 | 919.0 |
| 20260504180100 | 71 | 281 | 0.0 | 2.0 | 0.00 | 0.00 | 0.00 | 41 | 919.0 |
| 20260504174559 | 72 | 75 | 1.0 | 4.0 | 0.00 | 0.00 | 0.00 | 42 | 919.1 |
| 20260504173057 | 70 | 243 | 0.0 | 2.0 | 0.00 | 0.00 | 0.00 | 42 | 919.1 |
| 20260504171557 | 70 | 72 | 4.0 | 8.0 | 0.00 | 0.00 | 0.00 | 43 | 919.1 |
| 20260504081522 | 46 | 140 | 0.0 | 1.0 | 0.00 | 0.00 | 0.00 | 76 | 919.1 |